Current weather by "City, St" or "zip code"  
 

Current Conditions: Gaylord Regional Airport, MI

Mostly Cloudy


33.0 F

Last Updated on Oct 24 2020, 9:53 pm EDT
Humidity: 92%
Wind Speed: N 0.0 mph
Barometer 30.21 in
Dewpoint: 30.9 F
Visibility: 10.00 mi
Precip: --
Heat Index: NA
Wind Chill: NA
Current conditions at:

Gaylord Regional Airport, MI (KGLR)

Lat: 45.01658 Lon: 84.68937

Local Radar Image active severe weather and emergency alerts image image weather storm and storm spotter reports image weather observation monitoring service image
Local
Radar
Active
Alerts
Storm Reports Obs
Monitoring

Sign-up For Email & Text Message Weather Alert Notification Services



Advertise Here

Observation History for Gaylord Regional Airport, MI


Time Wind
(mph)
Vis
(mi)
Weather Precip (in) Temperature (F) Relative
Humidity
Wind
Chill
(F)
Heat
Index
(F)
Pressure
Air Dwpt altimeter
(in)
sea level
(mb)
Rmks
9:53 pm EDT N 0.0 10.00 Mostly Cloudy -- 33.0 30.9 92% NA NA 30.21 1024.4
8:53 pm EDT N 0.0 10.00 Mostly Cloudy -- 32.0 30.9 96% NA NA 30.21 1024.7
7:53 pm EDT W 3.5 10.00 Overcast -- 34.0 32.0 92% NA NA 30.20 1024.4
6:53 pm EDT SW 5.8 10.00 Overcast Trace 33.0 30.9 92% 28 NA 30.19 1024.0
5:53 pm EDT W 4.6 10.00 Overcast -- 35.0 30.0 82% 31 NA 30.18 1023.5
4:53 pm EDT W 5.8 10.00 Overcast Trace 37.0 28.9 73% 32 NA 30.18 1023.3
3:53 pm EDT 5.8 10.00 Overcast Trace 36.0 30.9 82% 31 NA 30.18 1023.4
2:53 pm EDT W 10.4 G 20.7 2.00 Light Snow Trace 36.0 30.9 82% 28 NA 30.19 1023.9
1:53 pm EDT SW 9.2 10.00 Overcast -- 39.0 28.0 65% 33 NA 30.20 1024.0
12:53 pm EDT SW 3.5 10.00 Overcast -- 37.0 30.0 76% NA NA 30.22 1024.9
11:53 am EDT S 3.5 10.00 Overcast -- 35.0 28.9 78% NA NA 30.22 1025.0
10:53 am EDT N 0.0 10.00 Overcast -- 35.0 28.0 76% NA NA 30.22 1024.7
9:53 am EDT NE 5.8 10.00 Overcast -- 33.0 28.9 85% 28 NA 30.21 1024.4
8:53 am EDT N 0.0 10.00 Overcast -- 33.0 28.9 85% NA NA 30.20 1024.3
7:53 am EDT N 0.0 10.00 Overcast -- 32.0 28.9 88% NA NA 30.19 1023.9
6:53 am EDT N 0.0 10.00 Overcast -- 33.0 28.9 85% NA NA 30.18 1023.4
5:53 am EDT NW 3.5 10.00 Overcast -- 33.0 28.0 82% NA NA 30.17 1023.0
4:53 am EDT 3.5 10.00 Overcast -- 33.0 28.9 85% NA NA 30.15 1022.2
3:53 am EDT 3.5 10.00 Overcast -- 33.0 28.9 85% NA NA 30.14 1021.9
2:53 am EDT 3.5 10.00 Overcast -- 33.0 30.0 89% NA NA 30.12 1021.4
1:53 am EDT N 6.9 10.00 Overcast -- 33.0 30.0 89% 27 NA 30.10 1020.8
12:53 am EDT 5.8 10.00 Mostly Cloudy Trace 34.0 30.0 85% 29 NA 30.08 1019.9
11:53 pm EDT NW 8.1 8.00 Light Snow Trace 33.0 30.9 92% 26 NA 30.07 1019.4
10:53 pm EDT 6.9 G 18.4 6.00 Light Snow Fog/Mist Trace 33.0 30.0 89% 27 NA 30.04 1018.4

Regional Weather Observation


Harbor Springs, Harbor Springs Airport, MI (KMGN)

Light Rain
34.0 F

Pellston Regional Airport of Emmet County, MI (KPLN)

Light Snow Fog/Mist
35.0 F

Charlevoix, Charlevoix Municipal Airport, MI (KCVX)

Overcast
39.0 F

Cheboygan, Cheboygan County Airport, MI (KSLH)

Overcast
36.0 F

Bellaire, Antrim County Airport, MI (KACB)

Overcast
37.0 F

Mackinac Island Airport, MI (KMCD)

Overcast
35.0 F